Home   Weather   Basse-Terre   Past weeks

Flag for Guadeloupe Past Weather in Basse-Terre, Guadeloupe — Yesterday and Last 2 Weeks

Now
82 °F

Broken clouds.


Feels Like: 88 °F
Forecast: 75 / 81 °F
Wind: 10 mph from Southeast

Location: Le Raizet - Guadeloupe

Current Time: Apr 28, 2017 at 4:20:57 pm

Latest Report: Apr 28, 2017 at 3:30 pm


Visibility: N/A

Pressure: 29.98 "Hg

Humidity: 74%

Dew Point: 73 °F

Location of Basse-TerreLocation

Past Weather in Basse-Terre — Graph

°F

Basse-Terre Temperature Yesterday

Maximum temperature yesterday: 86 °F (at 10:30 am)
Minimum temperature yesterday: 75 °F (at 1:00 am)
Average temperature yesterday: 80 °F

High & Low Weather Summary for the Past Weeks

 TemperatureHumidityPressure
High86 °F (Apr 14, 11:30 am)100% (Apr 14, 12:30 am)30.07 "Hg (Apr 14, 12:30 am)
Low68 °F (Apr 20, 2:00 am)51% (Apr 19, 2:30 pm)29.89 "Hg (Apr 13, 3:00 pm)
Average78 °F81%29.96 "Hg
* Reported Apr 13 3:00 pm — Apr 28 3:00 pm, Basse-Terre, Weather by CustomWeather, © 2017

Note: Actual official high and low records may vary slightly from our data, if they occured in-between our weather recording intervals... More about our weather records

Advertising

Basse-Terre Weather History for the Previous 24 Hours

Scroll right to see more
 ConditionsComfort  
Time TempWeatherWind HumidityBarometerVisibility
3:00 pm
Fri, Apr 28
82 °FPartly sunny.14 mph70%30.01 "HgN/A
2:30 pm82 °FBroken clouds.12 mph74%30.01 "HgN/A
2:00 pm81 °FBroken clouds.9 mph84%30.01 "HgN/A
1:30 pm79 °FBroken clouds.9 mph89%30.01 "HgN/A
1:00 pm77 °FLight rain. Partly sunny.9 mph89%30.04 "HgN/A
12:30 pm79 °FBroken clouds.10 mph89%30.04 "HgN/A
12:00 pm77 °FLight rain. Partly sunny.15 mph89%30.04 "Hg5 mi
11:30 am79 °FBroken clouds.9 mph89%30.04 "HgN/A
11:00 am79 °FBroken clouds.9 mph89%30.04 "HgN/A
10:30 am75 °FLight rain. Fog.8 mph94%30.07 "Hg1 mi
10:00 am75 °FRain. Fog.12 mph89%30.07 "Hg1 mi
9:00 am79 °FPartly sunny.12 mph84%30.04 "HgN/A
8:30 am79 °FBroken clouds.10 mph84%30.04 "HgN/A
8:00 am77 °FBroken clouds.10 mph89%30.04 "HgN/A
7:30 am75 °FBroken clouds.12 mph94%30.04 "HgN/A
7:00 am75 °FLight rain. Mostly cloudy.9 mph94%30.01 "HgN/A
6:30 am75 °FLight rain. Fog.10 mph94%30.01 "Hg2 mi
6:00 am75 °FHeavy rain. Fog.15 mph94%30.01 "Hg1 mi
5:30 am77 °FMostly cloudy.12 mph89%29.98 "HgN/A
5:00 am77 °FMostly cloudy.8 mph89%29.98 "HgN/A
4:30 am77 °FMostly cloudy.7 mph89%29.98 "HgN/A
3:30 am75 °FMostly cloudy.7 mph94%29.95 "HgN/A
3:00 am77 °FPartly cloudy.12 mph89%29.98 "HgN/A
2:30 am77 °FPassing clouds.10 mph89%29.95 "HgN/A
2:00 am77 °FPassing clouds.9 mph89%29.95 "HgN/A
1:30 am79 °FLight rain. Passing clouds.9 mph89%29.98 "HgN/A
1:00 am77 °FPartly cloudy.6 mph89%29.98 "HgN/A
12:30 am79 °FLight rain. Passing clouds.7 mph84%29.98 "HgN/A
12:00 am79 °FPassing clouds.5 mph84%30.01 "HgN/A
11:30 pm
Thu, Apr 27
79 °FOvercast.6 mph84%30.01 "HgN/A
11:00 pm79 °FWarm.5 mph89%30.01 "HgN/A
10:30 pm79 °FPassing clouds.6 mph84%30.01 "HgN/A
10:00 pm79 °FPassing clouds.7 mph84%30.01 "HgN/A
9:30 pm79 °FPassing clouds.7 mph84%30.01 "HgN/A
9:00 pm79 °FMostly cloudy.5 mph84%30.01 "HgN/A
8:30 pm79 °FPassing clouds.6 mph84%29.98 "HgN/A
8:00 pm79 °FClear.7 mph84%29.98 "Hg10 mi
7:30 pm79 °FPassing clouds.5 mph84%29.98 "HgN/A
7:00 pm81 °FPassing clouds.8 mph79%29.98 "HgN/A
6:30 pm81 °FPassing clouds.13 mph79%29.95 "HgN/A
6:00 pm82 °FPartly sunny.10 mph74%29.95 "HgN/A
5:30 pm82 °FPartly sunny.13 mph74%29.95 "HgN/A
5:00 pm82 °FPartly sunny.15 mph74%29.95 "HgN/A
4:30 pm82 °FPartly sunny.15 mph74%29.92 "HgN/A
4:00 pm84 °FScattered clouds.15 mph66%29.92 "HgN/A
Weather by CustomWeather, © 2017

See weather overviewHow to use our weather pages